Date String (YYYY-MM-DD hh:mm:ss) UTC,Instrument flags,Ambient pressure (hPa),Sample flow (lpm),Bypass flow (lpm),Sample temperature (°C),Ambient temperature (°C),ASC tube jacket temperature (°C),LED temperature (°C),Box temperature (°C),Sample RH (%),Span deviation,Mass concentration (μg/m³),Mass concentration (μg/m³),Mass concentration (μg/m³)
DateTimeUTC,F1_M11,P_M11,Q1_M11,Q2_M11,T1_M11,T2_M11,T3_M11,T4_M11,T5_M11,U1_M11,ZSPAN_M11,X2_M11,X0_M11,X1_M11
2021-11-15 09:00:00,,0825.7,5.00,0.00,26.5,25.6,00.0,35.5,28.2,13.6,0000.0,0000.70,0001.85,0000.40
2021-11-15 09:01:00,,0825.7,4.99,0.00,26.5,25.6,00.0,35.5,28.2,13.7,0000.0,0000.69,0002.05,0000.39
2021-11-15 09:02:00,,0825.7,5.02,0.00,26.5,25.6,00.0,35.5,28.2,13.4,0000.0,0000.69,0001.98,0000.39
2021-11-15 09:03:00,,0825.8,5.01,0.00,26.4,25.6,00.0,35.5,28.2,13.3,0000.0,0000.67,0001.89,0000.39
2021-11-15 09:04:00,,0825.8,4.99,0.00,26.4,25.6,00.0,35.5,28.2,13.5,0000.0,0000.68,0002.02,0000.39
2021-11-15 09:05:00,,0825.9,5.00,0.00,26.4,25.6,00.0,35.5,28.2,13.5,0000.0,0000.72,0002.12,0000.38
2021-11-15 09:06:00,,0825.8,5.01,0.00,26.4,25.6,00.0,35.5,28.2,13.6,0000.0,0000.71,0002.11,0000.38
2021-11-15 09:07:00,,0825.8,5.00,0.00,26.4,25.6,00.0,35.5,28.1,13.6,0000.0,0000.71,0002.11,0000.38
2021-11-15 09:08:00,,0825.6,5.01,0.00,26.4,25.6,00.0,35.5,28.1,13.4,0000.0,0000.73,0002.18,0000.39
2021-11-15 09:09:00,,0825.7,4.99,0.00,26.4,25.6,00.0,35.5,28.1,12.6,0000.0,0000.71,0002.13,0000.38
2021-11-15 09:10:00,,0825.6,5.01,0.00,26.4,25.6,00.0,35.5,28.2,12.8,0000.0,0000.68,0002.01,0000.37
2021-11-15 09:11:00,,0825.7,5.01,0.00,26.4,25.6,00.0,35.5,28.2,12.7,0000.0,0000.68,0001.91,0000.36
2021-11-15 09:12:00,,0826.0,5.00,0.00,26.4,25.6,00.0,35.5,28.2,13.2,0000.0,0000.68,0001.32,0000.36
2021-11-15 09:13:00,,0825.8,5.00,0.00,26.4,25.6,00.0,35.5,28.1,13.3,0000.0,0000.66,0001.28,0000.36
2021-11-15 09:14:00,,0825.9,4.99,0.00,26.4,25.6,00.0,35.5,28.2,12.9,0000.0,0000.67,0001.35,0000.35
2021-11-15 09:15:00,,0825.7,5.00,0.00,26.4,25.6,00.0,35.5,28.2,12.7,0000.0,0000.68,0001.53,0000.34
2021-11-15 09:16:00,,0825.7,5.00,0.00,26.4,25.6,00.0,35.5,28.2,12.7,0000.0,0000.67,0001.61,0000.33
2021-11-15 09:17:00,,0825.6,5.00,0.00,26.4,25.6,00.0,35.5,28.2,12.7,0000.0,0000.69,0001.68,0000.33
2021-11-15 09:18:00,,0825.7,5.00,0.00,26.4,25.6,00.0,35.5,28.3,12.7,0000.0,0000.69,0001.67,0000.32
2021-11-15 09:19:00,,0825.6,5.00,0.00,26.4,25.6,00.0,35.5,28.2,12.7,0000.0,0000.69,0001.66,0000.32
2021-11-15 09:20:00,,0825.9,5.00,0.00,26.4,25.6,00.0,35.5,28.2,12.7,0000.0,0000.67,0001.68,0000.31
2021-11-15 09:21:00,,0825.8,5.00,0.00,26.4,25.6,00.0,35.5,28.2,13.3,0000.0,0000.68,0001.74,0000.31
2021-11-15 09:22:00,,0825.7,5.01,0.00,26.4,25.6,00.0,35.5,28.2,13.6,0000.0,0000.69,0001.81,0000.32
2021-11-15 09:23:00,,0825.8,5.00,0.00,26.4,25.6,00.0,35.5,28.2,13.6,0000.0,0000.68,0001.85,0000.32
2021-11-15 09:24:00,,0825.7,4.99,0.00,26.4,25.6,00.0,35.5,28.1,13.5,0000.0,0000.69,0001.98,0000.31
2021-11-15 09:25:00,,0825.9,5.01,0.00,26.4,25.6,00.0,35.5,28.2,13.6,0000.0,0000.72,0002.06,0000.32
2021-11-15 09:26:00,,0825.8,5.00,0.00,26.4,25.6,00.0,35.5,28.2,13.6,0000.0,0000.71,0002.14,0000.33
2021-11-15 09:27:00,,0825.7,5.01,0.00,26.4,25.7,00.0,35.4,28.1,13.4,0000.0,0000.70,0002.98,0000.34
2021-11-15 09:28:00,,0825.7,4.98,0.00,26.4,25.7,00.0,35.4,28.2,13.4,0000.0,0000.70,0003.00,0000.34
2021-11-15 09:29:00,,0825.5,5.02,0.00,26.4,25.7,00.0,35.4,28.2,13.4,0000.0,0000.68,0002.95,0000.35
2021-11-15 09:30:00,,0825.5,4.99,0.00,26.4,25.7,00.0,35.4,28.2,13.2,0000.0,0000.68,0002.96,0000.35
2021-11-15 09:31:00,,0825.6,5.00,0.00,26.4,25.7,00.0,35.5,28.2,13.1,0000.0,0000.66,0002.92,0000.34
2021-11-15 09:32:00,,0825.5,5.01,0.00,26.4,25.7,00.0,35.5,28.2,13.5,0000.0,0000.66,0002.91,0000.35
2021-11-15 09:33:00,,0825.2,5.00,0.00,26.4,25.7,00.0,35.5,28.2,13.2,0000.0,0000.63,0002.77,0000.34
2021-11-15 09:34:00,,0825.5,4.99,0.00,26.4,25.6,00.0,35.5,28.2,13.4,0000.0,0000.63,0002.76,0000.34
2021-11-15 09:35:00,,0825.5,5.00,0.00,26.4,25.6,00.0,35.5,28.2,13.2,0000.0,0000.62,0003.95,0000.34
2021-11-15 09:36:00,,0825.5,5.01,0.00,26.4,25.6,00.0,35.4,28.2,13.7,0000.0,0000.61,0003.91,0000.34
2021-11-15 09:37:00,,0825.4,5.01,0.00,26.4,25.6,00.0,35.4,28.1,13.4,0000.0,0000.64,0003.92,0000.34
2021-11-15 09:38:00,,0825.5,5.00,0.00,26.4,25.6,00.0,35.4,28.1,13.4,0000.0,0000.62,0002.65,0000.33
2021-11-15 09:39:00,,0825.4,5.00,0.00,26.4,25.6,00.0,35.4,28.1,13.3,0000.0,0000.59,0002.62,0000.33
2021-11-15 09:40:00,,0825.3,5.00,0.00,26.4,25.6,00.0,35.4,28.2,13.1,0000.0,0000.58,0002.58,0000.33
2021-11-15 09:41:00,,0825.2,4.98,0.00,26.4,25.6,00.0,35.4,28.2,12.9,0000.0,0000.64,0002.80,0000.33
2021-11-15 09:42:00,,0825.4,5.01,0.00,26.4,25.6,00.0,35.5,28.2,12.8,0000.0,0000.68,0003.77,0000.33
2021-11-15 09:43:00,,0825.3,5.01,0.00,26.4,25.6,00.0,35.4,28.2,12.9,0000.0,0000.70,0004.21,0000.33
2021-11-15 09:44:00,,0825.2,5.00,0.00,26.4,25.6,00.0,35.4,28.3,12.7,0000.0,0000.75,0004.42,0000.33
2021-11-15 09:45:00,,0825.2,5.01,0.00,26.4,25.6,00.0,35.5,28.2,12.6,0000.0,0000.77,0004.41,0000.32
2021-11-15 09:46:00,,0825.2,5.00,0.00,26.4,25.6,00.0,35.5,28.3,12.6,0000.0,0000.80,0003.32,0000.32
2021-11-15 09:47:00,,0825.1,5.01,0.00,26.4,25.6,00.0,35.5,28.3,12.5,0000.0,0000.83,0003.45,0000.32
2021-11-15 09:48:00,,0825.2,5.00,0.00,26.4,25.6,00.0,35.5,28.3,12.3,0000.0,0000.79,0003.34,0000.32
2021-11-15 09:49:00,,0825.2,5.00,0.00,26.5,25.6,00.0,35.5,28.3,12.2,0000.0,0000.86,0003.40,0000.32
2021-11-15 09:50:00,,0825.3,5.01,0.00,26.5,25.6,00.0,35.5,28.3,12.4,0000.0,0000.91,0003.55,0000.33
2021-11-15 09:51:00,,0825.2,4.99,0.00,26.5,25.6,00.0,35.5,28.3,12.5,0000.0,0000.96,0003.69,0000.33
2021-11-15 09:52:00,,0825.2,5.01,0.00,26.5,25.6,00.0,35.5,28.3,12.4,0000.0,0000.91,0003.51,0000.32
2021-11-15 09:53:00,,0825.2,4.99,0.00,26.5,25.6,00.0,35.5,28.3,12.1,0000.0,0000.89,0002.60,0000.32
2021-11-15 09:54:00,,0825.0,4.99,0.00,26.5,25.6,00.0,35.5,28.3,12.2,0000.0,0000.89,0002.36,0000.32
2021-11-15 09:55:00,,0825.2,5.00,0.00,26.5,25.6,00.0,35.5,28.3,12.3,0000.0,0000.89,0003.97,0000.33
2021-11-15 09:56:00,,0825.1,5.00,0.00,26.5,25.6,00.0,35.5,28.3,12.4,0000.0,0000.89,0004.12,0000.35
2021-11-15 09:57:00,,0825.1,5.00,0.00,26.5,25.6,00.0,35.5,28.3,12.1,0000.0,0000.96,0005.26,0000.36
2021-11-15 09:58:00,,0825.2,5.00,0.00,26.5,25.6,00.0,35.5,28.3,11.8,0000.0,0001.01,0005.74,0000.37
2021-11-15 09:59:00,,0825.1,4.99,0.00,26.5,25.6,00.0,35.5,28.3,12.0,0000.0,0001.05,0005.94,0000.37
